Вернуться в каталог

COSMOS 926 DEB

АктивенPO
NORAD 13491·DEBRIS·🇷🇺 Russia

Запущен Jul 8, 1977 с Plesetsk Cosmodrome

Loading…

Ближайшие Пролёты (ближайшие 24 часа)

TLE

СвежийSource: Space-Track

Эпоха: Sep 14, 2026, 20:40 UTC

1 13491U 77062D   26257.86171219  .00000146  00000-0  13749-3 0  9995
2 13491  82.9262 283.8598 0019038 165.7612  13.1147 13.74709449265188

Отслеживайте COSMOS 926 DEB в реальном времени с AllMySat

Download on the App Store